Location: Newark
(35.8833°N, 14.5000°E)
Time: 00:45:49
(UTC+00:00)

BEESAT - Pass Details

Date: 16 November 2019
Orbit: 701 x 709 km, 98.6° (Epoch: 15 December)

Event Time Altitude Azimuth Distance (km) Brightness Sun altitude
Rises 16:48:15 0° 8° (N) 3,094 ? -11.2°
Reaches altitude 10° 16:50:32 10° 4° (N) 2,173 ? -11.6°
Maximum altitude 16:55:11 58° 287° (WNW) 821 ? -12.5°
Drops below altitude 10° 16:59:50 10° 208° (SSW) 2,163 ? -13.4°
Sets 17:02:06 0° 205° (SSW) 3,078 ? -13.9°
